, TX

(GMT )
Brazos 451

Weather History for KBQX - April, 2014

Change the Weather History Date:

Wednesday, April 30, 2014

  Actual Average Record
Temperature  
Mean Temperature 70 °F -  
Max Temperature 75 °F - - ()
Min Temperature 64 °F - - ()
Cooling Degree Days 4    
Growing Degree Days 20 (Base 50)    
Moisture  
Dew Point 45 °F    
Average Humidity 41    
Maximum Humidity 53    
Minimum Humidity 33    
Precipitation  
Precipitation 0.01 in - - ()
Sea Level Pressure  
Sea Level Pressure 30.03 in    
Wind  
Wind Speed 23 mph (North)    
Max Wind Speed 39 mph    
Max Gust Speed 47 mph    
Visibility 10 miles    
Events      
Averages and records for this station are not official NWS values.
T = Trace of Precipitation, MM = Missing Value Source: NWS Daily Summary

Daily Weather History Graph

Daily Weather History Graph

Search for Another Location

Airport or City:

Trip Planner

Search our weather history database for the weather conditions in past years. The results will help you decide how hot, cold, wet, or windy it might be!

Date:

Astronomy

Apr. 30, 2014 Rise Set
Actual Time 6:43 AM CDT 7:57 PM CDT
Civil Twilight 6:18 AM CDT 8:22 PM CDT
Nautical Twilight 5:48 AM CDT 8:51 PM CDT
Astronomical Twilight 5:18 AM CDT 9:22 PM CDT
Moon 7:47 AM CDT (4/30) 9:33 PM CDT (4/30)
Length of Visible Light 14h 04m
Length of Day
13h 14m
New Moon, 2% of the Moon is Illuminated
Apr 30
New Moon
May 6
First Quarter
May 14
Full
May 21
Last Quarter
May 28
New

Hourly Weather History & Observations

Time (CDT) Temp. Dew Point Humidity Pressure Visibility Wind Dir Wind Speed Gust Speed Precip Events Conditions
12:15 AM 75.2 °F 57.2 °F 53% 29.90 in 10.0 mi NNE 17.3 mph - N/A   Clear
12:35 AM 75.2 °F 53.6 °F 47% 29.91 in 10.0 mi NNE 19.6 mph - N/A   Clear
12:55 AM 75.2 °F 57.2 °F 53% 29.91 in 10.0 mi NNE 17.3 mph - N/A   Clear
1:15 AM 75.2 °F 57.2 °F 53% 29.90 in 10.0 mi NNE 19.6 mph - N/A   Clear
1:35 AM 75.2 °F 53.6 °F 47% 29.91 in 10.0 mi NNE 20.7 mph - N/A   Clear
1:55 AM 75.2 °F 55.4 °F 50% 29.91 in 10.0 mi NNE 21.9 mph - N/A   Clear
2:15 AM 73.4 °F 55.4 °F 53% 29.92 in 10.0 mi NNE 20.7 mph - N/A   Clear
2:35 AM 73.4 °F 55.4 °F 53% 29.92 in 10.0 mi North 24.2 mph - N/A   Clear
2:55 AM 71.6 °F 50.0 °F 46% 29.92 in 10.0 mi North 33.4 mph - N/A   Clear
3:15 AM 71.6 °F 48.2 °F 43% 29.93 in 10.0 mi NNE 33.4 mph 40.3 mph N/A   Clear
3:35 AM 69.8 °F 48.2 °F 46% 29.94 in 10.0 mi North 34.5 mph - N/A   Clear
3:55 AM 69.8 °F 46.4 °F 43% 29.94 in 10.0 mi North 39.1 mph - N/A   Clear
4:15 AM 69.8 °F 46.4 °F 43% 29.96 in 10.0 mi North 34.5 mph 41.4 mph N/A   Partly Cloudy
4:35 AM 69.8 °F 46.4 °F 43% 29.96 in 10.0 mi NNE 31.1 mph 36.8 mph N/A   Mostly Cloudy
4:55 AM 69.8 °F 44.6 °F 40% 29.96 in 10.0 mi North 31.1 mph 38.0 mph N/A   Overcast
5:15 AM 69.8 °F 44.6 °F 40% 29.97 in 10.0 mi North 33.4 mph 40.3 mph N/A   Overcast
5:35 AM 69.8 °F 42.8 °F 38% 29.98 in 10.0 mi North 28.8 mph 40.3 mph N/A   Overcast
5:55 AM 69.8 °F 42.8 °F 38% 29.99 in 10.0 mi North 36.8 mph - N/A   Mostly Cloudy
6:15 AM 69.8 °F 42.8 °F 38% 29.99 in 10.0 mi North 34.5 mph 43.7 mph N/A   Partly Cloudy
6:35 AM 69.8 °F 39.2 °F 33% 30.01 in 10.0 mi North 38.0 mph 47.2 mph N/A   Clear
6:55 AM 69.8 °F 39.2 °F 33% 30.02 in 10.0 mi North 35.7 mph 42.6 mph N/A   Clear
7:15 AM 69.8 °F 39.2 °F 33% 30.03 in 10.0 mi North 34.5 mph - N/A   Clear
7:35 AM 68.0 °F 39.2 °F 35% 30.05 in 10.0 mi North 33.4 mph 39.1 mph N/A   Clear
7:55 AM 69.8 °F 41.0 °F 35% 30.05 in 10.0 mi North 31.1 mph - N/A   Clear
8:15 AM 68.0 °F 41.0 °F 37% 30.05 in 10.0 mi North 29.9 mph 35.7 mph N/A   Clear
8:35 AM 68.0 °F 42.8 °F 40% 30.05 in 10.0 mi North 28.8 mph - N/A   Clear
8:55 AM 68.0 °F 41.0 °F 37% 30.05 in 10.0 mi North 29.9 mph - N/A   Clear
9:15 AM 68.0 °F 42.8 °F 40% 30.07 in 10.0 mi North 25.3 mph 31.1 mph N/A   Clear
9:35 AM 68.0 °F 41.0 °F 37% 30.09 in 10.0 mi North 25.3 mph - N/A   Clear
9:55 AM 68.0 °F 41.0 °F 37% 30.09 in 10.0 mi North 25.3 mph - N/A   Clear
10:15 AM 68.0 °F 42.8 °F 40% 30.09 in 10.0 mi North 25.3 mph - N/A   Scattered Clouds
10:35 AM 64.4 °F 42.8 °F 45% 30.04 in 4.0 mi North 32.2 mph - N/A   Haze
10:55 AM 64.4 °F 41.0 °F 42% 30.07 in 9.0 mi North 28.8 mph - 0.01 in   Scattered Clouds
11:15 AM 64.4 °F 41.0 °F 42% 30.07 in 7.0 mi North 26.5 mph 32.2 mph N/A   Scattered Clouds
11:35 AM 66.2 °F 41.0 °F 40% 30.11 in 9.0 mi North 19.6 mph 26.5 mph N/A   Mostly Cloudy
11:55 AM 66.2 °F 39.2 °F 37% 30.10 in 10.0 mi North 21.9 mph - N/A   Partly Cloudy
12:15 PM 68.0 °F 41.0 °F 37% 30.09 in 10.0 mi North 20.7 mph 27.6 mph N/A   Clear
12:35 PM 68.0 °F 41.0 °F 37% 30.10 in 10.0 mi North 18.4 mph - N/A   Clear
12:55 PM 68.0 °F 41.0 °F 37% 30.09 in 10.0 mi North 19.6 mph - N/A   Scattered Clouds
1:15 PM 66.2 °F 42.8 °F 43% 30.09 in 10.0 mi NNW 20.7 mph - N/A   Overcast
1:35 PM 68.0 °F 41.0 °F 37% 30.09 in 10.0 mi North 17.3 mph - N/A   Overcast
1:55 PM 68.0 °F 42.8 °F 40% 30.09 in 10.0 mi NNW 17.3 mph - N/A   Scattered Clouds
2:15 PM 69.8 °F 42.8 °F 38% 30.09 in 10.0 mi North 19.6 mph - N/A   Clear
2:35 PM 69.8 °F 41.0 °F 35% 30.08 in 10.0 mi North 18.4 mph - N/A   Clear
2:55 PM 69.8 °F 41.0 °F 35% 30.08 in 10.0 mi North 12.7 mph - N/A   Clear
3:15 PM 69.8 °F 42.8 °F 38% 30.08 in 10.0 mi North 11.5 mph - N/A   Clear
3:35 PM 69.8 °F 41.0 °F 35% 30.06 in 10.0 mi North 19.6 mph - N/A   Clear
3:55 PM 69.8 °F 42.8 °F 38% 30.06 in 10.0 mi North 19.6 mph - N/A   Clear
4:15 PM 69.8 °F 42.8 °F 38% 30.04 in 10.0 mi North 15.0 mph - N/A   Partly Cloudy
4:35 PM 69.8 °F 42.8 °F 38% 30.04 in 10.0 mi North 16.1 mph - N/A   Partly Cloudy
4:55 PM 69.8 °F 44.6 °F 40% 30.04 in 10.0 mi NNE 13.8 mph 19.6 mph N/A   Clear
5:15 PM 69.8 °F 44.6 °F 40% 30.03 in 10.0 mi North 12.7 mph - N/A   Clear
5:35 PM 69.8 °F 42.8 °F 38% 30.03 in 10.0 mi North 11.5 mph - N/A   Clear
5:55 PM 69.8 °F 42.8 °F 38% 30.03 in 10.0 mi North 8.1 mph - N/A   Clear
6:15 PM 69.8 °F 44.6 °F 40% 30.02 in 10.0 mi NNE 9.2 mph - N/A   Partly Cloudy
6:35 PM 69.8 °F 44.6 °F 40% 30.02 in 10.0 mi NNE 8.1 mph - N/A   Mostly Cloudy
6:55 PM 69.8 °F 44.6 °F 40% 30.02 in 10.0 mi North 8.1 mph - N/A   Scattered Clouds
7:15 PM 69.8 °F 44.6 °F 40% 30.03 in 10.0 mi North 8.1 mph - N/A   Clear
7:35 PM 69.8 °F 46.4 °F 43% 30.04 in 10.0 mi North 6.9 mph - N/A   Clear
7:55 PM 69.8 °F 46.4 °F 43% 30.04 in 10.0 mi North 6.9 mph - N/A   Scattered Clouds
8:15 PM 69.8 °F 48.2 °F 46% 30.05 in 10.0 mi North 13.8 mph - N/A   Mostly Cloudy
8:35 PM 71.6 °F 46.4 °F 41% 30.06 in 10.0 mi North 16.1 mph - N/A   Mostly Cloudy
8:55 PM 71.6 °F 44.6 °F 38% 30.06 in 10.0 mi North 18.4 mph - N/A   Mostly Cloudy
9:15 PM 71.6 °F 46.4 °F 41% 30.07 in 10.0 mi North 17.3 mph - N/A   Mostly Cloudy
9:35 PM 69.8 °F 48.2 °F 46% 30.08 in 10.0 mi North 19.6 mph - N/A   Partly Cloudy
9:55 PM 69.8 °F 46.4 °F 43% 30.08 in 10.0 mi North 18.4 mph - N/A   Scattered Clouds
10:15 PM 69.8 °F 48.2 °F 46% 30.09 in 10.0 mi North 20.7 mph - N/A   Mostly Cloudy
10:35 PM 69.8 °F 46.4 °F 43% 30.10 in 10.0 mi North 21.9 mph - N/A   Mostly Cloudy
10:55 PM 69.8 °F 46.4 °F 43% 30.09 in 10.0 mi North 24.2 mph - N/A   Mostly Cloudy
11:15 PM 69.8 °F 46.4 °F 43% 30.10 in 10.0 mi North 25.3 mph - N/A   Overcast
11:35 PM 69.8 °F 48.2 °F 46% 30.10 in 10.0 mi North 23.0 mph - N/A   Overcast
11:55 PM 69.8 °F 48.2 °F 46% 30.10 in 10.0 mi North 27.6 mph - N/A   Overcast